Location: Grums
(59.3529°N, 13.1129°E)
Time: 20:19:04
(UTC+02:00)

Nauka - Pass Details

Date: 29 September 2021
Orbit: 417 x 423 km, 51.6° (Epoch: 17 October)

Event Time Altitude Azimuth Distance (km) Brightness Sun altitude
Rises 20:12:18 0° 260° (W) 2,366 ? -11.7°
Reaches altitude 10° 20:14:51 10° 241° (WSW) 1,501 ? -12.1°
Maximum altitude 20:17:10 18° 197° (SSW) 1,120 ? -12.3°
Enters shadow 20:19:14 11° 156° (SSE) 1,424 ? -12.6°
